Weather History for Newberry, MI

Change the Weather History Date:

Tuesday, May 14, 2013

  Actual Average Record
Temperature  
Mean Temperature 48 °F -  
Max Temperature 60 °F 61 °F 81 °F (1958)
Min Temperature 37 °F 38 °F 20 °F (1936)
Degree Days  
Heating Degree Days 16    
Moisture  
Dew Point 38 °F    
Average Humidity 70    
Maximum Humidity 93    
Minimum Humidity 48    
Precipitation  
Precipitation 0.00 in - - ()
Sea Level Pressure  
Sea Level Pressure 29.82 in    
Wind  
Wind Speed 10 mph (SE)    
Max Wind Speed 18 mph    
Max Gust Speed 23 mph    
Visibility 10 miles    
Events Rain    
Averages and records for this station are not official NWS values.
T = Trace of Precipitation, MM = Missing Value Source: NWS Daily Summary

Daily Weather History Graph

Daily Weather History Graph

Search for Another Location

Airport:

Trip Planner

Search our weather history database for the weather conditions in past years. The results will help you decide how hot, cold, wet, or windy it might be!

Date:

Astronomy

May. 14, 2013 Rise Set
Actual Time 6:09 AM EDT 9:07 PM EDT
Civil Twilight 5:34 AM EDT 9:42 PM EDT
Nautical Twilight 4:49 AM EDT 10:28 PM EDT
Astronomical Twilight 3:55 AM EDT 11:22 PM EDT
Moon 9:49 AM EDT (5/14) 12:15 AM EDT (5/14)
Length of Visible Light 16h 08m
Length of Day
14h 57m
Waxing Crescent, 19% of the Moon is Illuminated
May 14
Waxing Crescent
May 18
First Quarter
May 25
Full
May 31
Last Quarter
Jun 8
New

Hourly Weather History & Observations

Time (EDT) Temp. Windchill Dew Point Humidity Pressure Visibility Wind Dir Wind Speed Gust Speed Precip Events Conditions
12:15 AM 42.8 °F 38.0 °F 26.6 °F 53% 29.99 in 10.0 mi South 8.1 mph - N/A   Overcast
12:34 AM 42.8 °F 38.0 °F 26.6 °F 53% 29.99 in 10.0 mi SSW 8.1 mph - N/A   Overcast
12:55 AM 42.8 °F 39.3 °F 28.4 °F 57% 29.99 in 10.0 mi South 5.8 mph - N/A   Overcast
1:15 AM 41.0 °F 34.7 °F 28.4 °F 61% 29.99 in 10.0 mi SSW 10.4 mph - N/A Rain Light Rain
1:34 AM 39.2 °F 35.0 °F 32.0 °F 75% 29.98 in 10.0 mi South 5.8 mph - N/A Rain Light Rain
1:55 AM 39.2 °F 33.6 °F 33.8 °F 81% 29.98 in 10.0 mi SSW 8.1 mph - N/A Rain Rain
2:14 AM 37.4 °F 30.3 °F 33.8 °F 87% 29.97 in 10.0 mi SSW 10.4 mph - N/A Rain Light Rain
2:34 AM 37.4 °F 32.1 °F 33.8 °F 87% 29.96 in 10.0 mi South 6.9 mph - N/A Rain Light Rain
2:55 AM 37.4 °F 32.8 °F 35.6 °F 93% 29.96 in 5.0 mi SSE 5.8 mph - N/A Rain Rain
3:14 AM 37.4 °F 32.8 °F 35.6 °F 93% 29.95 in 7.0 mi SSE 5.8 mph - N/A Rain Light Rain
3:35 AM 37.4 °F 29.8 °F 35.6 °F 93% 29.91 in 10.0 mi ESE 11.5 mph - N/A Rain Light Rain
3:55 AM 37.4 °F 32.1 °F 35.6 °F 93% 29.93 in 10.0 mi SE 6.9 mph - N/A Rain Light Rain
4:14 AM 37.4 °F 30.8 °F 35.6 °F 93% 29.92 in 7.0 mi SE 9.2 mph - N/A Rain Light Rain
4:35 AM 37.4 °F 30.8 °F 35.6 °F 93% 29.90 in 10.0 mi SE 9.2 mph - N/A Rain Light Rain
4:55 AM 37.4 °F 30.8 °F 35.6 °F 93% 29.90 in 10.0 mi SE 9.2 mph - N/A Rain Light Rain
5:14 AM 37.4 °F 30.3 °F 35.6 °F 93% 29.89 in 10.0 mi SE 10.4 mph - N/A   Overcast
5:35 AM 37.4 °F 30.3 °F 35.6 °F 93% 29.89 in 10.0 mi SE 10.4 mph - N/A   Light Drizzle
5:55 AM 39.2 °F 33.0 °F 35.6 °F 87% 29.88 in 10.0 mi SE 9.2 mph - N/A   Overcast
6:14 AM 39.2 °F 31.6 °F 35.6 °F 87% 29.89 in 10.0 mi SE 12.7 mph - N/A   Overcast
6:35 AM 39.2 °F 32.0 °F 35.6 °F 87% 29.89 in 10.0 mi SE 11.5 mph - N/A   Overcast
6:54 AM 39.2 °F 31.2 °F 35.6 °F 87% 29.88 in 10.0 mi SE 13.8 mph 19.6 mph N/A   Overcast
7:14 AM 39.2 °F 32.0 °F 37.4 °F 93% 29.88 in 10.0 mi SE 11.5 mph 18.4 mph N/A   Overcast
7:35 AM 41.0 °F 34.3 °F 37.4 °F 87% 29.87 in 10.0 mi SE 11.5 mph - N/A   Overcast
7:54 AM 41.0 °F 34.7 °F 37.4 °F 87% 29.86 in 10.0 mi SE 10.4 mph 16.1 mph N/A   Overcast
8:15 AM 41.0 °F 34.3 °F 37.4 °F 87% 29.85 in 10.0 mi SE 11.5 mph 17.3 mph N/A   Overcast
8:34 AM 42.8 °F 37.0 °F 39.2 °F 87% 29.85 in 10.0 mi ESE 10.4 mph 17.3 mph N/A   Overcast
8:54 AM 42.8 °F 35.8 °F 39.2 °F 87% 29.85 in 10.0 mi SSE 13.8 mph - N/A   Scattered Clouds
9:14 AM 44.6 °F 37.8 °F 39.2 °F 81% 29.85 in 10.0 mi SE 15.0 mph 20.7 mph N/A   Clear
9:34 AM 46.4 °F 40.1 °F 39.2 °F 76% 29.84 in 10.0 mi SE 15.0 mph 18.4 mph N/A   Clear
9:55 AM 48.2 °F - 41.0 °F 76% 29.83 in 10.0 mi SE 11.5 mph 17.3 mph N/A   Clear
10:14 AM 51.8 °F - 41.0 °F 67% 29.82 in 10.0 mi SE 13.8 mph 20.7 mph N/A   Clear
10:35 AM 53.6 °F - 41.0 °F 62% 29.80 in 10.0 mi SE 18.4 mph - N/A   Clear
10:55 AM 53.6 °F - 37.4 °F 54% 29.81 in 10.0 mi SSE 12.7 mph 23.0 mph N/A   Clear
11:14 AM 53.6 °F - 37.4 °F 54% 29.83 in 10.0 mi SSE 11.5 mph - N/A   Clear
11:35 AM 53.6 °F - 37.4 °F 54% 29.84 in 10.0 mi SE 17.3 mph 21.9 mph N/A   Clear
11:55 AM 53.6 °F - 37.4 °F 54% 29.83 in 10.0 mi SE 13.8 mph - N/A   Clear
12:14 PM 55.4 °F - 37.4 °F 51% 29.82 in 10.0 mi SE 18.4 mph 21.9 mph N/A   Clear
12:35 PM 55.4 °F - 37.4 °F 51% 29.82 in 10.0 mi SSE 15.0 mph 20.7 mph N/A   Clear
12:55 PM 57.2 °F - 37.4 °F 48% 29.82 in 10.0 mi SSE 9.2 mph 20.7 mph N/A   Clear
1:14 PM 57.2 °F - 37.4 °F 48% 29.82 in 10.0 mi SSE 9.2 mph 19.6 mph N/A   Clear
1:35 PM 57.2 °F - 37.4 °F 48% 29.82 in 10.0 mi South 9.2 mph - N/A   Clear
1:54 PM 57.2 °F - 39.2 °F 51% 29.83 in 10.0 mi SSE 8.1 mph 16.1 mph N/A   Clear
2:14 PM 57.2 °F - 37.4 °F 48% 29.82 in 10.0 mi ESE 11.5 mph - N/A   Clear
2:35 PM 57.2 °F - 39.2 °F 51% 29.82 in 10.0 mi SSE 4.6 mph - N/A   Clear
2:54 PM 57.2 °F - 41.0 °F 55% 29.82 in 10.0 mi ESE 6.9 mph - N/A   Clear
3:14 PM 57.2 °F - 42.8 °F 59% 29.83 in 10.0 mi ESE 12.7 mph 16.1 mph N/A   Clear
3:35 PM 59.0 °F - 42.8 °F 55% 29.81 in 10.0 mi East 8.1 mph - N/A   Clear
3:54 PM 57.2 °F - 42.8 °F 59% 29.80 in 10.0 mi SE 10.4 mph - N/A   Clear
4:15 PM 59.0 °F - 42.8 °F 55% 29.79 in 10.0 mi ESE 13.8 mph 17.3 mph N/A   Clear
4:35 PM 60.8 °F - 42.8 °F 52% 29.78 in 10.0 mi ESE 12.7 mph 19.6 mph N/A   Clear
4:54 PM 60.8 °F - 42.8 °F 52% 29.78 in 10.0 mi ESE 13.8 mph 19.6 mph N/A   Clear
5:15 PM 57.2 °F - 42.8 °F 59% 29.76 in 10.0 mi ESE 11.5 mph - N/A   Clear
5:35 PM 57.2 °F - 41.0 °F 55% 29.75 in 10.0 mi SE 12.7 mph - N/A   Clear
5:54 PM 57.2 °F - 42.8 °F 59% 29.75 in 10.0 mi SE 11.5 mph - N/A   Clear
6:15 PM 57.2 °F - 42.8 °F 59% 29.74 in 10.0 mi ESE 15.0 mph - N/A   Clear
6:34 PM 55.4 °F - 41.0 °F 58% 29.72 in 10.0 mi ESE 13.8 mph - N/A   Scattered Clouds
6:55 PM 55.4 °F - 41.0 °F 58% 29.72 in 10.0 mi East 12.7 mph - N/A   Scattered Clouds
7:14 PM 53.6 °F - 41.0 °F 62% 29.72 in 10.0 mi ESE 13.8 mph 17.3 mph N/A   Scattered Clouds
7:35 PM 53.6 °F - 41.0 °F 62% 29.71 in 10.0 mi ESE 15.0 mph 19.6 mph N/A   Scattered Clouds
7:55 PM 53.6 °F - 41.0 °F 62% 29.70 in 10.0 mi ESE 10.4 mph - N/A   Scattered Clouds
8:14 PM 53.6 °F - 39.2 °F 58% 29.68 in 10.0 mi ESE 12.7 mph - N/A   Scattered Clouds
8:35 PM 51.8 °F - 41.0 °F 67% 29.68 in 10.0 mi ESE 10.4 mph - N/A   Clear
8:55 PM 51.8 °F - 41.0 °F 67% 29.67 in 10.0 mi East 9.2 mph - N/A   Clear
9:14 PM 50.0 °F - 39.2 °F 66% 29.66 in 10.0 mi ESE 12.7 mph 18.4 mph N/A   Clear
9:35 PM 48.2 °F - 39.2 °F 71% 29.66 in 10.0 mi ESE 13.8 mph 19.6 mph N/A   Clear
9:54 PM 48.2 °F - 39.2 °F 71% 29.65 in 10.0 mi ESE 9.2 mph - N/A   Clear
10:14 PM 48.2 °F - 39.2 °F 71% 29.65 in 10.0 mi ESE 15.0 mph 20.7 mph N/A   Clear
10:35 PM 48.2 °F - 39.2 °F 71% 29.65 in 10.0 mi ESE 13.8 mph - N/A   Clear
10:54 PM 48.2 °F - 41.0 °F 76% 29.64 in 10.0 mi ESE 11.5 mph 17.3 mph N/A   Scattered Clouds
11:15 PM 48.2 °F - 42.8 °F 82% 29.62 in 10.0 mi ESE 10.4 mph - N/A   Scattered Clouds
11:34 PM 48.2 °F - 42.8 °F 82% 29.61 in 10.0 mi ESE 10.4 mph - N/A   Scattered Clouds
11:54 PM 46.4 °F 41.5 °F 42.8 °F 87% 29.60 in 10.0 mi ESE 10.4 mph - N/A   Scattered Clouds